Location: Monfort
(47.1967°N, 0.2115°W)
Time: 12:16:52
(UTC+00:00)

CZ-4 R/B - Pass Details

Date: 24 October 2020
Orbit: 532 x 598 km, 97.7° (Epoch: 28 November)

Event Time Altitude Azimuth Distance (km) Brightness Sun altitude
Rises 17:22:56 0° 127° (SE) 2,714 4.5 -5.2°
Reaches altitude 10° 17:25:33 10° 109° (ESE) 1,814 3.4 -5.6°
Maximum altitude 17:28:17 19° 64° (ENE) 1,345 2.7 -6.0°
Drops below altitude 10° 17:31:01 10° 19° (NNE) 1,805 3.7 -6.5°
Sets 17:33:36 0° 1° (N) 2,696 4.7 -6.9°
